Location: Unspecified
(41.4057°N, 2.1753°E)
Time: 22:13:34
(UTC+01:00)

ISS - Visible Passes

Search period start: 09 December 2016 00:00
Search period end: 19 December 2016 00:00
Orbit: 401 x 410 km, 51.6° (Epoch: 10 December)

Date Brightness Start Highest point End Pass type
(mag) Time Alt. Az. Time Alt. Az. Time Alt. Az.
09 Dec -1.1 18:47:40 10° NW 18:49:33 14° N 18:50:01 14° N visible
10 Dec -1.1 17:55:11 10° NW 17:57:16 15° N 17:59:21 10° NNE visible
10 Dec -0.4 19:32:35 10° NNW 19:32:47 11° NNW 19:32:47 11° NNW visible
11 Dec -1.2 18:40:34 10° NNW 18:42:28 14° N 18:42:53 14° NNE visible
12 Dec -0.7 19:24:56 10° NW 19:25:42 14° NNW 19:25:42 14° NNW visible
13 Dec -1.5 18:33:02 10° NNW 18:35:20 17° NNE 18:35:53 17° NNE visible
14 Dec -1.5 19:17:10 10° NW 19:18:50 23° NNW 19:18:50 23° NNW visible
15 Dec -2.0 18:25:16 10° NW 18:28:02 24° NNE 18:29:13 20° NE visible
15 Dec -0.2 20:01:30 10° WNW 20:01:55 13° WNW 20:01:55 13° WNW visible
16 Dec -3.3 19:09:25 10° NW 19:12:27 67° N 19:12:27 67° N visible
17 Dec -2.8 18:17:26 10° NW 18:20:36 41° NNE 18:23:14 14° E visible
17 Dec -0.7 19:54:13 10° WNW 19:55:57 21° WSW 19:55:57 21° WSW visible
18 Dec -2.3 19:01:49 10° WNW 19:04:59 45° SW 19:07:04 19° SSE visible
